TimeEDT,TemperatureF,Dew PointF,Humidity,Sea Level PressureIn,VisibilityMPH,Wind Direction,Wind SpeedMPH,Gust SpeedMPH,PrecipitationIn,Events,Conditions,WindDirDegrees,DateUTC
12:08 AM,66.2,66.2,100,30.04,2.0,Calm,Calm,-,N/A,,Clear,0,2013-08-30 04:08:00
12:18 AM,66.2,66.2,100,30.05,5.0,Calm,Calm,-,N/A,,Clear,0,2013-08-30 04:18:00
12:37 AM,66.2,66.2,100,30.04,2.0,Calm,Calm,-,N/A,,Clear,0,2013-08-30 04:37:00
12:48 AM,66.2,66.2,100,30.04,1.8,Calm,Calm,-,N/A,,Clear,0,2013-08-30 04:48:00
12:56 AM,65.8,65.8,100,30.02,1.8,SSE,3.5,-,N/A,,Clear,160,2013-08-30 04:56:00
1:02 AM,66.2,66.2,100,30.04,3.0,Calm,Calm,-,N/A,,Clear,0,2013-08-30 05:02:00
1:11 AM,66.2,66.2,100,30.04,2.5,Calm,Calm,-,N/A,,Clear,0,2013-08-30 05:11:00
1:20 AM,66.2,66.2,100,30.04,3.0,Calm,Calm,-,N/A,,Clear,0,2013-08-30 05:20:00
1:25 AM,66.2,66.2,100,30.03,1.2,Calm,Calm,-,N/A,,Clear,0,2013-08-30 05:25:00
1:27 AM,66.2,64.4,94,30.03,0.8,Calm,Calm,-,N/A,,Clear,0,2013-08-30 05:27:00
1:35 AM,64.4,64.4,100,30.03,1.2,Calm,Calm,-,N/A,,Clear,0,2013-08-30 05:35:00
1:37 AM,64.4,64.4,100,30.03,4.0,Calm,Calm,-,N/A,,Clear,0,2013-08-30 05:37:00
1:49 AM,64.4,64.4,100,30.03,1.5,Calm,Calm,-,N/A,,Clear,0,2013-08-30 05:49:00
1:56 AM,64.9,64.9,100,30.01,1.0,Calm,Calm,-,N/A,,Clear,0,2013-08-30 05:56:00
2:04 AM,64.4,64.4,100,30.03,0.5,Calm,Calm,-,N/A,Fog,Fog,0,2013-08-30 06:04:00
2:13 AM,64.4,64.4,100,30.03,0.2,Calm,Calm,-,N/A,Fog,Fog,0,2013-08-30 06:13:00
2:56 AM,64.9,64.9,100,30.01,0.2,Calm,Calm,-,N/A,Fog,Fog,0,2013-08-30 06:56:00
3:05 AM,64.4,64.4,100,30.03,0.8,Calm,Calm,-,N/A,,Clear,0,2013-08-30 07:05:00
3:07 AM,64.4,64.4,100,30.03,1.2,Calm,Calm,-,N/A,,Clear,0,2013-08-30 07:07:00
3:09 AM,64.4,64.4,100,30.03,2.5,Calm,Calm,-,N/A,,Clear,0,2013-08-30 07:09:00
3:12 AM,64.4,64.4,100,30.03,0.8,Calm,Calm,-,N/A,,Clear,0,2013-08-30 07:12:00
3:15 AM,64.4,64.4,100,30.03,0.2,Calm,Calm,-,N/A,Fog,Fog,0,2013-08-30 07:15:00
3:49 AM,64.4,64.4,100,30.03,0.8,Calm,Calm,-,N/A,,Clear,0,2013-08-30 07:49:00
3:56 AM,63.9,63.9,100,30.01,5.0,Calm,Calm,-,N/A,,Clear,0,2013-08-30 07:56:00
4:37 AM,64.4,64.4,100,30.03,1.8,Calm,Calm,-,N/A,,Clear,0,2013-08-30 08:37:00
4:39 AM,64.4,64.4,100,30.03,0.8,Calm,Calm,-,N/A,,Clear,0,2013-08-30 08:39:00
4:43 AM,64.4,64.4,100,30.03,0.2,Calm,Calm,-,N/A,Fog,Fog,0,2013-08-30 08:43:00
4:56 AM,64.9,64.9,100,30.00,0.2,Calm,Calm,-,N/A,Fog,Fog,0,2013-08-30 08:56:00
5:06 AM,62.6,62.6,100,30.02,0.8,Calm,Calm,-,N/A,,Clear,0,2013-08-30 09:06:00
5:08 AM,62.6,62.6,100,30.02,1.8,Calm,Calm,-,N/A,,Clear,0,2013-08-30 09:08:00
5:15 AM,62.6,62.6,100,30.02,5.0,Calm,Calm,-,N/A,,Clear,0,2013-08-30 09:15:00
5:22 AM,62.6,62.6,100,30.03,1.8,Calm,Calm,-,N/A,,Clear,0,2013-08-30 09:22:00
5:25 AM,62.6,62.6,100,30.03,1.0,Calm,Calm,-,N/A,,Clear,0,2013-08-30 09:25:00
5:27 AM,62.6,62.6,100,30.03,0.5,Calm,Calm,-,N/A,Fog,Fog,0,2013-08-30 09:27:00
5:37 AM,62.6,62.6,100,30.03,1.2,Calm,Calm,-,N/A,,Clear,0,2013-08-30 09:37:00
5:39 AM,62.6,62.6,100,30.03,5.0,Calm,Calm,-,N/A,,Clear,0,2013-08-30 09:39:00
5:43 AM,62.6,62.6,100,30.03,1.5,Calm,Calm,-,N/A,,Clear,0,2013-08-30 09:43:00
5:45 AM,62.6,62.6,100,30.03,0.8,Calm,Calm,-,N/A,,Mist,0,2013-08-30 09:45:00
5:48 AM,62.6,62.6,100,30.03,0.2,Calm,Calm,-,N/A,Fog,Fog,0,2013-08-30 09:48:00
5:56 AM,61.9,61.9,100,30.01,0.2,Calm,Calm,-,N/A,Fog,Fog,0,2013-08-30 09:56:00
6:20 AM,62.6,62.6,100,30.02,0.2,Calm,Calm,-,N/A,Fog,Fog,0,2013-08-30 10:20:00
6:27 AM,62.6,62.6,100,30.02,1.0,Calm,Calm,-,N/A,,Mist,0,2013-08-30 10:27:00
6:29 AM,62.6,62.6,100,30.02,1.8,Calm,Calm,-,N/A,,Mostly Cloudy,0,2013-08-30 10:29:00
6:34 AM,62.6,62.6,100,30.02,3.0,Calm,Calm,-,N/A,,Partly Cloudy,0,2013-08-30 10:34:00
6:40 AM,62.6,62.6,100,30.02,1.8,Calm,Calm,-,0.00,Rain,Light Rain,0,2013-08-30 10:40:00
6:44 AM,62.6,62.6,100,30.02,1.0,Calm,Calm,-,0.00,,Mist,0,2013-08-30 10:44:00
6:46 AM,62.6,62.6,100,30.03,0.5,Calm,Calm,-,0.00,Fog,Fog,0,2013-08-30 10:46:00
6:56 AM,63.0,63.0,100,30.01,0.5,Calm,Calm,-,0.00,Fog,Fog,0,2013-08-30 10:56:00
6:59 AM,62.6,62.6,100,30.03,1.0,Calm,Calm,-,N/A,,Clear,0,2013-08-30 10:59:00
7:01 AM,62.6,62.6,100,30.03,2.5,Calm,Calm,-,N/A,,Clear,0,2013-08-30 11:01:00
7:12 AM,62.6,62.6,100,30.03,1.2,Calm,Calm,-,N/A,,Mostly Cloudy,0,2013-08-30 11:12:00
7:21 AM,62.6,62.6,100,30.03,2.0,Calm,Calm,-,N/A,,Partly Cloudy,0,2013-08-30 11:21:00
7:29 AM,62.6,62.6,100,30.03,4.0,Calm,Calm,-,N/A,,Partly Cloudy,0,2013-08-30 11:29:00
7:42 AM,62.6,62.6,100,30.03,2.5,Calm,Calm,-,N/A,,Partly Cloudy,0,2013-08-30 11:42:00
7:44 AM,62.6,62.6,100,30.03,1.0,Calm,Calm,-,N/A,,Mist,0,2013-08-30 11:44:00
7:47 AM,62.6,62.6,100,30.03,0.2,Calm,Calm,-,N/A,Fog,Fog,0,2013-08-30 11:47:00
7:56 AM,63.9,63.9,100,30.01,0.2,Calm,Calm,-,N/A,Fog,Fog,0,2013-08-30 11:56:00
8:13 AM,64.4,64.4,100,30.03,0.5,Calm,Calm,-,N/A,Fog,Fog,0,2013-08-30 12:13:00
8:16 AM,66.2,66.2,100,30.03,1.0,Calm,Calm,-,N/A,,Mist,0,2013-08-30 12:16:00
8:18 AM,66.2,66.2,100,30.03,1.5,Calm,Calm,-,N/A,,Clear,0,2013-08-30 12:18:00
8:28 AM,66.2,66.2,100,30.03,2.0,Calm,Calm,-,N/A,,Clear,0,2013-08-30 12:28:00
8:56 AM,70.9,70.0,97,30.01,2.5,Calm,Calm,-,N/A,,Clear,0,2013-08-30 12:56:00
9:11 AM,71.6,71.6,100,30.03,3.0,Calm,Calm,-,N/A,,Clear,0,2013-08-30 13:11:00
9:56 AM,75.9,72.0,87,30.00,6.0,South,3.5,-,0.00,,Clear,170,2013-08-30 13:56:00
10:56 AM,79.9,70.9,74,30.00,6.0,SSW,4.6,-,N/A,,Haze,200,2013-08-30 14:56:00
11:25 AM,80.6,71.6,74,30.02,6.0,SSW,4.6,-,N/A,,Haze,210,2013-08-30 15:25:00
11:46 AM,80.6,71.6,74,30.02,6.0,SSW,3.5,-,N/A,,Haze,200,2013-08-30 15:46:00
11:56 AM,81.9,70.9,69,29.99,6.0,SW,6.9,-,N/A,,Haze,220,2013-08-30 15:56:00
12:56 PM,84.9,72.0,65,29.97,6.0,Variable,5.8,-,N/A,,Haze,0,2013-08-30 16:56:00
1:56 PM,86.0,70.9,60,29.95,6.0,South,4.6,-,N/A,,Haze,180,2013-08-30 17:56:00
2:56 PM,86.9,68.9,55,29.94,7.0,South,5.8,-,N/A,,Clear,190,2013-08-30 18:56:00
3:56 PM,88.0,68.0,51,29.92,7.0,SW,8.1,-,N/A,,Partly Cloudy,220,2013-08-30 19:56:00
4:56 PM,86.9,68.9,55,29.91,6.0,South,5.8,-,N/A,,Haze,190,2013-08-30 20:56:00
5:56 PM,86.9,70.0,57,29.88,7.0,South,6.9,-,N/A,,Clear,190,2013-08-30 21:56:00
6:56 PM,84.9,68.0,57,29.88,7.0,SSW,5.8,-,N/A,,Clear,210,2013-08-30 22:56:00
7:56 PM,77.9,70.0,76,29.87,6.0,South,3.5,-,N/A,,Haze,180,2013-08-30 23:56:00
8:56 PM,74.8,68.0,79,29.88,8.0,South,4.6,-,N/A,,Clear,190,2013-08-31 00:56:00
9:56 PM,72.0,68.0,87,29.88,8.0,South,3.5,-,N/A,,Clear,180,2013-08-31 01:56:00
10:56 PM,72.9,68.0,85,29.87,7.0,South,5.8,-,N/A,,Clear,180,2013-08-31 02:56:00
11:56 PM,72.9,68.0,85,29.84,7.0,South,4.6,-,N/A,,Clear,180,2013-08-31 03:56:00